Regional Weather Roundup
Issued by NWS State College, PA

Home | Current Version | Previous Version | Graphics & Text | Print | Product List | Glossary On
Versions: 1 2 3 4 5 6 7 8 9 10 11 12 13 14 15 16 17 18 19 20 21 22 23 24 25 26 27 28 29 30 31 32 33 34 35 36 37 38 39 40 41 42 43 44 45 46 47 48 49 50
000
ASUS41 KCTP 270303
RWRCTP

REGIONAL WEATHER ROUNDUP
NATIONAL WEATHER SERVICE STATE COLLEGE PA
1100 PM EDT TUE MAY 26 2015

Note: "fair" indicates few or no clouds below 12,000 feet with no
significant weather and/or obstructions to visibility.

* = STATION THAT DOES NOT REPORT PRECIPITATION /E.G. RAIN...SNOW...ETC/
    THUNDER OR FOG.

PAZ002>004-007>009-013>016-020>023-029>032-270400-
WESTERN PENNSYLVANIA

CITY           SKY/WX    TMP DP  RH WIND       PRES   REMARKS
ERIE           CLOUDY    76  63  64 S15       29.99R
MEADVILLE      MOCLDY    70  63  78 VRB3      30.05S
FRANKLIN*      MOCLDY    70  61  73 SE9       30.08F
NEW CASTLE     FAIR      73  67  81 CALM      30.06R
BEAVER COUNTY  NOT AVBL
BUTLER*        PTCLDY    72  63  73 S5        30.09S
PITTSBURGH INT MOCLDY    74  64  71 S7        30.07R
PITTSBURGH     CLEAR     73  60  63 S6        30.08R
INDIANA*       CLEAR     72  64  78 VRB3      30.14S
LATROBE        NOT AVBL
WASHINGTON CO* PTCLDY    66  64  94 S3        30.10S
$$

PAZ004>006-010>012-017>019-024>028-033>037-041-042-045-046-049>053-270400-
CENTRAL PENNSYLVANIA

CITY           SKY/WX    TMP DP  RH WIND       PRES   REMARKS
BRADFORD       PTCLDY    65  61  87 SE5       30.12S
DUBOIS         PTCLDY    71  63  75 S7        30.10F
CLEARFIELD     PTCLDY    66  63  90 CALM      30.12F
JOHNSTOWN      PTCLDY    68  62  81 S13       30.15F
ALTOONA        PTCLDY    72  63  73 S6        30.14F
STATE COLLEGE  PTCLDY    73  64  71 S3        30.13R
WILLIAMSPORT   PTCLDY    69  68  96 CALM      30.10R FOG
SELINSGROVE    CLEAR     71  64  78 CALM      30.12R
FT INDIANTOWN  PTCLDY    75  67  77 S6        30.15R
CAPITAL CITY   MOCLDY    77  66  68 SE9       30.13R
HARRISBURG     MOCLDY    76  67  73 SE7       30.13R
YORK           CLOUDY    75  66  73 S5        30.15R
$$

PAZ038>040-043-044-047-048-054-055-060>062-067>071-270400-
EASTERN PENNSYLVANIA

CITY           SKY/WX    TMP DP  RH WIND       PRES   REMARKS
SCRANTON       CLEAR     76  63  64 S8        30.14R
MOUNT POCONO   CLEAR     70  62  76 SW12      30.20R
ALLENTOWN      CLEAR     78  66  66 S9        30.15R
QUAKERTOWN*    CLEAR     75  66  73 S3        30.18R
READING        CLEAR     76  66  71 S7        30.15R
LANCASTER      PTCLDY    73  64  73 S12       30.16R
COATESVILLE    CLEAR     73  66  78 S6        30.19S
POTTSTOWN      CLEAR     76  66  71 S6        30.18S
BLUE BELL      CLEAR     73  64  73 S3        30.18R
DOYLESTOWN     PTCLDY    73  64  73 S7        30.17R
WILLOW GROVE   NOT AVBL
NORTH PHILA    PTCLDY    76  62  62 SW8       30.19S
PHILADELPHIA   PTCLDY    75  63  66 S12       30.18S
$$



USA.gov is the U.S. government's official web portal to all federal, state and local government web resources and services.